AEROCUBE 12A (43556 NORAD) Tracking and Keplerian Element Data

This shows tracking and keplerian element data for the satellite.

Feedback or suggestion? Click here.




ElementValue
Catalog43556
NameAEROCUBE 12A
Epoch Orbit4758
Epoch Day143.69847346
Epoch Year2019
RAAN181.3327
Inclination51.6419
Eccentricity0.0008372
Argument of Perigee340.036
Mean Anonmoly20.0291
Mean Motion15.28642478
Decay Rate7.28E-06
L11 43556U 18046C 19143.69847346 .00000728 00000-0 38429-4 0 9994
L22 43556 51.6419 181.3327 0008372 340.0360 20.0291 15.28642478 47587

Live tracking and technical data element details for AEROCUBE 12A (NORAD 43556). AEROCUBE 12A can be tracked NOW for your location showing map with azimuth and elevation plus other details from your city location.

Track the satellite on the map from your city or location and see movement details for azimuth, elevation, latitude, longitude, range, height, and movement on the map or in text.







IsCatalogInMostPopularTable: catalog: 43556, numindb: 155
Update: records affected: 1



GetName: 43556 AEROCUBE 12A

Hit Count: updated at: Fri, 24 May 2019 21:02:56 GMT